Weather reports worldwide

Advertisment
Cottbus, Germany (10496): temperature & dewpoint: 09.12.2018 23:00:00 - 15.12.2018 23:00:00 (CET)Cottbus, Germany (10496): temperature 5cm & temperature -5cm: 09.12.2018 23:00:00 - 15.12.2018 23:00:00 (CET)Cottbus, Germany (10496): temperature -20cm & temperature -100cm: 09.12.2018 23:00:00 - 15.12.2018 23:00:00 (CET)Cottbus, Germany (10496): wind speed & gusts: 09.12.2018 23:00:00 - 15.12.2018 23:00:00 (CET)Cottbus, Germany (10496): wind direction: 09.12.2018 23:00:00 - 15.12.2018 23:00:00 (CET)Cottbus, Germany (10496): reduced air pressure: 09.12.2018 23:00:00 - 15.12.2018 23:00:00 (CET)Cottbus, Germany (10496): visibility: 09.12.2018 23:00:00 - 15.12.2018 23:00:00 (CET)Cottbus, Germany (10496): sunshine duration: 09.12.2018 23:00:00 - 15.12.2018 23:00:00 (CET)Cottbus, Germany (10496): precipitation: 09.12.2018 23:00:00 - 15.12.2018 23:00:00 (CET)
Date & Time tt [°C] td [°C] tt 5cm [°C] tt -5cm [°C] tt -20cm [°C] tt -100cm [°C] ff [km/h] ff [kn] fx [km/h] fx [kn] dd ppp [hPa] vv [km] sd [min] rr [mm]
15.12.2018 23:00:00 - - - - - - - - - - - - - - -
15.12.2018 22:00:00 -0,1 -1,4 -0,1 0,2 1,5 5,7 5 3 13 7 E 1025,1 3,5 0 0,0
15.12.2018 21:00:00 -0,1 -1,5 -0,3 0,2 1,5 5,7 5 3 10 5 NE 1025,8 3,6 0 0,0
15.12.2018 20:00:00 -0,1 -1,5 -0,5 0,2 1,5 5,7 5 3 11 6 NE 1026,2 3,8 0 0,0
15.12.2018 19:00:00 0,0 -1,5 -0,5 0,2 1,5 5,7 4 2 10 6 NNE 1026,8 4,8 0 0,0
15.12.2018 18:00:00 -0,1 -1,7 -0,5 0,3 1,5 5,7 5 3 10 5 NNE 1027,3 6 0 0,0
15.12.2018 17:00:00 0,0 -1,8 -0,4 0,3 1,5 5,7 5 3 9 5 NNW 1027,7 6 0 0,0
15.12.2018 16:00:00 0,2 -1,9 0,1 0,3 1,5 5,7 4 2 11 6 N 1027,9 7 0 0,0
15.12.2018 15:00:00 0,3 -2,1 0,2 0,3 1,5 5,8 6 3 13 7 N 1028,1 8 0 0,0
15.12.2018 14:00:00 0,1 -2,2 0,3 0,2 1,5 5,8 6 3 13 7 N 1028,2 7 0 0,0
15.12.2018 13:00:00 0,1 -2,4 0,4 0,2 1,5 5,8 7 4 25 13 NE 1028,4 8 0 0,0
15.12.2018 12:00:00 0,0 -2,2 0,2 0,2 1,5 5,8 7 4 14 8 NE 1028,8 4,3 0 0,0
15.12.2018 11:00:00 -0,2 -2,4 0,1 0,2 1,5 5,8 6 3 15 8 NE 1029,2 6 0 0,0
15.12.2018 10:00:00 -0,6 -2,4 -0,4 0,2 1,5 5,8 4 2 12 6 N 1029,4 8 0 0,0
15.12.2018 09:00:00 -0,8 -2,6 -0,6 0,2 1,5 5,8 5 3 10 6 N 1029,4 8 0 0,0
15.12.2018 08:00:00 -1,2 -2,7 -1,2 0,2 1,5 5,8 4 2 10 5 N 1029,1 8 0 0,0
15.12.2018 07:00:00 -1,1 -2,8 -1,1 0,2 1,5 5,9 4 2 9 5 N 1028,9 6 0 0,0
15.12.2018 06:00:00 -0,9 -3,3 -1,1 0,2 1,5 5,9 5 3 11 6 NNE 1028,8 5 0 0,0
15.12.2018 05:00:00 -0,7 -3,8 -0,8 0,2 1,6 5,9 5 3 12 7 NNE 1028,6 13 0 0,0
15.12.2018 04:00:00 -0,6 -4,1 -0,8 0,2 1,6 5,9 5 3 15 8 NE 1028,5 13 0 0,0
15.12.2018 03:00:00 -0,3 -4,4 -0,6 0,2 1,6 5,9 8 4 18 10 ENE 1028,7 14 0 0,0
15.12.2018 02:00:00 -0,4 -4,2 -0,6 0,2 1,6 5,9 9 5 18 10 ENE 1028,6 12 0 0,0
15.12.2018 01:00:00 -0,4 -4,0 -0,6 0,2 1,6 5,9 8 5 18 10 NE 1028,5 13 0 0,0
15.12.2018 00:00:00 -0,3 -3,2 -0,5 0,2 1,6 5,9 9 5 20 11 ENE 1028,4 10 0 0,0
14.12.2018 23:00:00 -0,3 -2,8 -0,4 0,3 1,6 6,0 8 4 20 11 ENE 1028,5 7 0 0,0
14.12.2018 22:00:00 -0,1 -2,4 -0,4 0,3 1,7 6,0 9 5 17 9 E 1028,5 5 0 0,0
14.12.2018 21:00:00 -0,1 -2,3 -0,3 0,3 1,7 6,0 5 3 19 10 NE 1028,2 5 0 0,0
14.12.2018 20:00:00 0,0 -2,5 -0,3 0,3 1,7 6,0 9 5 21 11 ENE 1027,7 7 0 0,0
14.12.2018 19:00:00 0,0 -2,4 -0,2 0,2 1,8 6,0 9 5 22 12 ENE 1027,5 7 0 0,0
14.12.2018 18:00:00 0,1 -2,0 -0,2 0,3 1,8 6,0 9 5 20 11 ENE 1027,3 6 0 0,0
14.12.2018 17:00:00 0,2 -1,7 0,0 0,4 1,8 6,0 10 5 23 13 ENE 1027,1 4,8 0 0,0
14.12.2018 16:00:00 0,4 -1,5 0,2 0,6 1,8 6,1 9 5 21 11 NE 1026,7 4,4 0 0,0
14.12.2018 15:00:00 0,6 -1,4 0,5 0,7 1,8 6,1 11 6 21 12 ENE 1026,3 4,4 0 0,0
14.12.2018 14:00:00 0,5 -1,5 0,5 0,6 1,7 6,1 10 6 19 10 ENE 1026,3 4,4 0 0,0
14.12.2018 13:00:00 0,3 -1,3 0,5 0,3 1,7 6,1 10 5 19 10 ENE 1026,0 3,8 0 0,0
14.12.2018 12:00:00 0,1 -1,4 0,4 0,3 1,7 6,1 9 5 21 11 E 1026,1 3,8 0 0,0
14.12.2018 11:00:00 -0,3 -1,9 0,0 0,3 1,7 6,1 9 5 22 12 ENE 1026,2 4,2 0 0,0
14.12.2018 10:00:00 -0,5 -2,3 -0,4 0,3 1,8 6,1 11 6 20 11 ENE 1026,0 5 0 0,0
14.12.2018 09:00:00 -0,6 -2,8 -0,6 0,3 1,8 6,1 11 6 22 12 ENE 1025,5 6 0 0,0
14.12.2018 08:00:00 -0,6 -3,1 -0,7 0,3 1,8 6,1 11 6 24 13 ENE 1025,1 8 0 0,0
14.12.2018 07:00:00 -0,6 -3,4 -0,7 0,3 1,8 6,2 10 6 27 15 E 1024,4 10 0 0,0
14.12.2018 06:00:00 -0,6 -3,6 -0,7 0,3 1,9 6,2 11 6 24 13 E 1024,3 10 0 0,0
14.12.2018 05:00:00 -0,6 -3,8 -0,7 0,3 1,9 6,2 11 6 21 11 ENE 1024,1 14 0 0,0
14.12.2018 04:00:00 -0,4 -3,3 -0,6 0,3 1,9 6,2 11 6 22 12 E 1024,2 14 0 0,0
14.12.2018 03:00:00 -0,4 -3,1 -0,6 0,3 2,0 6,2 11 6 23 12 ENE 1024,3 12 0 0,0
14.12.2018 02:00:00 -0,2 -3,0 -0,5 0,2 2,1 6,2 12 7 22 12 E 1024,1 12 0 0,0
14.12.2018 01:00:00 -0,2 -2,6 -0,5 0,2 2,2 6,2 8 4 21 12 ENE 1023,9 12 0 0,0
14.12.2018 00:00:00 -0,1 -2,7 -0,4 0,3 2,2 6,2 8 4 23 13 E 1023,9 12 0 0,0
13.12.2018 23:00:00 0,1 -2,6 -0,2 0,5 2,3 6,3 8 4 19 10 ENE 1023,8 13 0 0,0
13.12.2018 22:00:00 0,2 -2,6 0,0 0,6 2,4 6,3 9 5 26 14 E 1023,8 12 0 0,0
13.12.2018 21:00:00 0,3 -2,5 0,0 0,7 2,5 6,3 10 5 24 13 E 1023,6 13 0 0,0
13.12.2018 20:00:00 0,6 -2,3 0,2 0,9 2,6 6,3 14 7 27 14 E 1023,5 13 0 0,0
13.12.2018 19:00:00 0,8 -1,6 0,5 1,2 2,7 6,3 14 8 26 14 E 1023,3 9 0 0,0
13.12.2018 18:00:00 1,1 -1,3 0,8 1,5 2,7 6,3 10 5 23 12 ENE 1023,3 9 0 0,0
13.12.2018 17:00:00 1,2 -0,9 1,0 1,7 2,8 6,3 13 7 25 14 ENE 1023,2 8 0 0,0
13.12.2018 16:00:00 1,4 -0,5 1,1 1,9 2,8 6,3 10 5 17 9 NE 1023,2 9 0 0,0
13.12.2018 15:00:00 1,6 -0,1 1,3 2,1 2,7 6,4 8 4 23 12 ENE 1023,1 8 0 0,0
13.12.2018 14:00:00 1,5 0,1 1,5 2,2 2,6 6,4 8 4 19 11 ENE 1023,3 6 0 0,0
13.12.2018 13:00:00 1,3 0,3 1,5 2,1 2,5 6,4 10 5 19 10 ENE 1023,4 6 0 0,0
13.12.2018 12:00:00 1,3 0,4 1,3 1,9 2,4 6,4 9 5 21 11 E 1023,6 4,2 0 0,0
13.12.2018 11:00:00 1,1 0,4 1,1 1,4 2,4 6,4 8 4 17 9 E 1024,0 3,7 0 0,1
13.12.2018 10:00:00 0,7 0,2 0,7 1,0 2,4 6,4 9 5 14 7 ENE 1024,1 2,8 0 0,3
13.12.2018 09:00:00 0,4 -0,1 0,6 1,2 2,4 6,4 5 3 10 6 N 1024,1 2,3 0 0,0
13.12.2018 08:00:00 0,3 -0,1 0,3 1,1 2,3 6,4 4 2 8 4 WNW 1024,0 1,6 0 0,0
13.12.2018 07:00:00 0,2 -0,4 0,3 1,1 2,3 6,4 3 2 6 4 WNW 1024,1 2,4 0 0,0
13.12.2018 06:00:00 0,2 -0,3 0,1 1,0 2,3 6,4 3 2 5 3 NW 1024,4 2,4 0 0,0
13.12.2018 05:00:00 0,0 -0,5 0,0 0,8 2,3 6,5 4 2 5 3 NW 1024,6 2,6 0 0,0
13.12.2018 04:00:00 -0,2 -0,7 -0,1 0,6 2,3 6,5 3 2 13 7 W 1025,0 1,4 0 0,0
13.12.2018 03:00:00 -0,3 -0,7 -0,3 0,5 2,4 6,5 6 3 8 4 WSW 1025,1 1,9 0 0,0
13.12.2018 02:00:00 -0,4 -0,9 -0,4 0,4 2,4 6,5 3 2 8 5 W 1025,3 3,3 0 0,0
13.12.2018 01:00:00 -0,4 -0,9 -0,5 0,4 2,5 6,5 5 3 8 4 WSW 1025,5 3,4 0 0,0
13.12.2018 00:00:00 -0,6 -1,0 -0,6 0,5 2,6 6,5 3 2 9 5 W 1025,8 3,4 0 0,0
12.12.2018 23:00:00 -0,8 -1,4 -0,8 0,5 2,7 6,5 4 2 8 5 WSW 1025,8 3,7 0 0,0
12.12.2018 22:00:00 -1,2 -1,9 -1,7 0,5 2,9 6,5 3 2 6 3 N 1025,7 4,1 0 0,0
12.12.2018 21:00:00 -1,6 -2,2 -2,3 0,6 3,0 6,5 4 2 7 4 NNW 1025,9 4,3 0 0,0
12.12.2018 20:00:00 -1,4 -2,0 -3,3 0,6 3,2 6,5 3 2 10 5 WNW 1025,7 3,7 0 0,0
12.12.2018 19:00:00 -0,1 -1,1 -1,2 1,1 3,5 6,5 6 3 10 5 N 1025,4 7 0 0,0
12.12.2018 18:00:00 -0,1 -0,9 -1,2 1,1 3,7 6,5 4 2 9 5 NNE 1025,1 5 0 0,0
12.12.2018 17:00:00 0,5 -0,7 -0,7 1,7 3,9 6,5 6 3 9 5 NNE 1025,0 8 0 0,0
12.12.2018 16:00:00 1,3 -0,5 0,4 2,7 4,0 6,6 5 3 16 8 NNE 1024,5 12 0 0,0
12.12.2018 15:00:00 2,3 0,5 2,0 3,6 3,9 6,6 6 3 18 10 N 1024,1 11 0 0,0
12.12.2018 14:00:00 2,5 0,2 2,8 3,8 3,8 6,6 8 5 18 10 N 1023,9 14 0 0,0
12.12.2018 13:00:00 2,5 0,9 2,7 3,7 3,7 6,6 6 4 14 8 NNW 1023,6 12 0 0,0
12.12.2018 12:00:00 2,6 1,2 2,8 3,5 3,6 6,6 5 3 12 7 NNW 1023,7 11 0 0,0
12.12.2018 11:00:00 2,3 0,8 2,6 2,9 3,6 6,6 6 4 12 7 N 1023,6 12 0 0,0
12.12.2018 10:00:00 1,8 0,7 1,1 2,3 3,6 6,6 6 4 22 12 N 1023,2 10 0 0,0
12.12.2018 09:00:00 2,3 1,3 1,8 2,5 3,7 6,6 7 4 17 9 N 1022,4 12 0 0,0
12.12.2018 08:00:00 2,5 1,8 2,2 2,6 3,7 6,6 10 6 18 10 NNW 1021,6 13 0 0,0
12.12.2018 07:00:00 2,4 1,7 2,2 2,7 3,7 6,6 7 4 14 7 NNW 1021,0 19 0 0,0
12.12.2018 06:00:00 2,4 1,7 2,2 2,7 3,7 6,6 7 4 19 10 NW 1020,6 31 0 0,2
12.12.2018 05:00:00 2,5 1,7 2,4 2,8 3,8 6,6 7 4 17 9 NW 1020,1 24 0 0,0
12.12.2018 04:00:00 2,6 1,9 2,4 2,8 3,8 6,6 7 4 19 10 NW 1019,6 24 0 0,1
12.12.2018 03:00:00 2,6 1,7 2,5 2,9 3,8 6,6 9 5 23 12 NW 1019,2 26 0 0,0
12.12.2018 02:00:00 2,7 1,8 2,5 2,9 3,8 6,6 9 5 21 11 NW 1018,9 27 0 0,0
12.12.2018 01:00:00 2,8 2,0 2,6 2,9 3,8 6,6 10 6 18 10 NW 1018,4 42 0 0,1
12.12.2018 00:00:00 2,7 2,0 2,5 2,8 3,8 6,7 8 4 17 9 NW 1018,1 8 0 0,1
11.12.2018 23:00:00 2,6 1,8 2,4 2,7 3,9 6,7 8 4 19 10 NW 1017,8 46 0 0,0
11.12.2018 22:00:00 2,6 1,6 2,3 2,7 3,9 6,7 9 5 20 11 NW 1017,2 70 0 0,0
11.12.2018 21:00:00 2,8 2,2 2,6 2,8 4,0 6,7 10 5 19 10 NW 1016,7 32 0 0,4
11.12.2018 20:00:00 1,9 1,3 1,9 2,6 4,0 6,7 8 4 17 9 W 1016,4 9 0 0,7
11.12.2018 19:00:00 1,4 0,8 1,4 2,6 4,1 6,7 7 4 18 10 W 1016,3 8 0 0,8
11.12.2018 18:00:00 1,4 0,7 1,4 2,8 4,3 6,7 8 4 21 11 W 1016,0 8 0 0,2
11.12.2018 17:00:00 1,6 0,7 1,5 3,0 4,4 6,7 9 5 24 13 W 1015,7 32 0 0,3
11.12.2018 16:00:00 2,3 0,7 2,0 3,5 4,4 6,7 11 6 27 14 WNW 1015,4 18 0 0,1
11.12.2018 15:00:00 3,2 1,0 3,1 3,8 4,4 6,7 10 5 25 13 WNW 1014,6 70 0 0,0
11.12.2018 14:00:00 3,4 0,7 3,4 4,1 4,4 6,7 10 5 20 11 WNW 1014,0 70 0 0,0
11.12.2018 13:00:00 3,5 0,1 3,8 4,3 4,3 6,7 10 5 31 17 NW 1013,5 70 0 0,0
11.12.2018 12:00:00 3,6 0,5 3,7 4,1 4,2 6,7 15 8 27 15 NNW 1013,0 70 0 0,0
11.12.2018 11:00:00 3,2 0,9 3,1 3,5 4,1 6,7 13 7 36 19 NW 1012,4 70 0 0,0
11.12.2018 10:00:00 3,2 1,7 3,0 3,4 4,1 6,7 12 7 34 18 WNW 1011,7 66 0 0,0
11.12.2018 09:00:00 3,3 2,0 3,0 3,3 4,1 6,7 17 9 35 19 WNW 1010,9 20 0 0,5
11.12.2018 08:00:00 3,2 2,0 2,8 3,2 4,2 6,7 16 9 40 21 W 1010,1 8 0 1,3
11.12.2018 07:00:00 3,3 1,9 2,9 3,3 4,2 6,7 19 10 37 20 W 1009,8 9 0 1,7
11.12.2018 06:00:00 3,8 2,1 3,2 3,3 4,2 6,7 16 9 37 20 W 1009,6 12 0 0,2
11.12.2018 05:00:00 3,7 2,0 3,1 3,2 4,2 6,7 16 9 31 17 W 1010,1 8 0 0,2
11.12.2018 04:00:00 3,9 0,9 3,2 3,1 4,3 6,7 13 7 35 19 W 1010,1 42 0 0,0
11.12.2018 03:00:00 4,1 1,1 3,3 3,3 4,3 6,7 12 6 28 15 W 1010,3 40 0 0,0
11.12.2018 02:00:00 3,7 1,5 3,1 3,3 4,3 6,7 13 7 27 14 W 1010,2 46 0 0,0
11.12.2018 01:00:00 3,5 1,8 3,0 3,3 4,4 6,7 14 7 35 19 W 1010,3 40 0 0,0
11.12.2018 00:00:00 3,3 1,9 2,9 3,3 4,4 6,7 15 8 39 21 W 1010,2 21 0 0,1
10.12.2018 23:00:00 3,3 1,9 2,8 3,2 4,4 6,7 17 9 40 22 W 1010,1 14 0 0,7
10.12.2018 22:00:00 3,6 1,1 3,0 3,3 4,5 6,7 18 10 43 23 W 1010,3 38 0 0,0
10.12.2018 21:00:00 4,0 0,5 3,7 3,3 4,6 6,7 19 11 43 23 W 1010,7 60 0 0,0
10.12.2018 20:00:00 3,9 0,5 3,6 3,3 4,6 6,7 22 12 37 20 W 1010,8 46 0 0,1
10.12.2018 19:00:00 3,5 0,7 2,8 3,3 4,7 6,7 19 10 42 23 W 1011,0 17 0 0,0
10.12.2018 18:00:00 4,3 0,0 3,8 3,3 4,9 6,7 16 9 44 24 WSW 1011,1 50 0 0,0
10.12.2018 17:00:00 4,1 0,3 3,3 3,5 5,0 6,7 17 9 45 24 W 1011,4 20 0 0,1
10.12.2018 16:00:00 4,7 0,1 4,3 3,9 5,1 6,7 16 9 36 20 W 1011,0 47 0 0,0
10.12.2018 15:00:00 5,0 -0,2 4,7 4,4 5,1 6,7 17 9 48 26 W 1010,7 51 3 0,0
10.12.2018 14:00:00 5,3 -0,1 5,5 5,0 5,1 6,7 24 13 46 25 W 1010,6 52 11 0,0
10.12.2018 13:00:00 5,3 0,1 5,3 4,8 5,1 6,7 22 12 48 26 W 1010,6 46 0 0,0
10.12.2018 12:00:00 5,1 0,2 5,0 5,0 5,0 6,7 21 12 53 29 W 1010,6 47 5 0,0
10.12.2018 11:00:00 4,9 0,7 4,3 4,4 4,9 6,7 16 9 40 22 W 1010,5 52 1 0,1
10.12.2018 10:00:00 4,2 1,4 3,5 4,1 4,9 6,7 17 9 44 24 W 1010,3 10 0 0,1
10.12.2018 09:00:00 4,3 1,7 3,5 3,9 5,0 6,7 19 11 40 22 W 1009,5 53 0 0,1
10.12.2018 08:00:00 4,1 2,3 3,4 3,8 5,1 6,7 15 8 40 22 W 1008,7 4,2 0 0,3
10.12.2018 07:00:00 4,4 2,0 3,4 4,0 5,2 6,7 16 9 36 19 W 1007,8 43 0 0,3
10.12.2018 06:00:00 5,0 1,7 4,0 4,1 5,3 6,7 14 8 45 25 W 1006,9 20 0 0,0
10.12.2018 05:00:00 5,3 1,2 4,9 4,0 5,4 6,7 16 9 47 26 W 1006,1 39 0 0,0
10.12.2018 04:00:00 5,4 1,8 4,7 4,5 5,5 6,7 19 11 48 26 W 1005,2 41 0 0,0
10.12.2018 03:00:00 5,9 1,9 5,6 4,6 5,6 6,7 17 9 45 24 W 1004,5 43 0 0,0
10.12.2018 02:00:00 6,0 2,0 5,5 4,8 5,7 6,7 19 10 45 24 W 1003,7 58 0 0,1
10.12.2018 01:00:00 6,2 2,3 5,6 5,0 5,7 6,7 18 10 48 26 W 1002,5 42 0 0,0
10.12.2018 00:00:00 6,8 2,3 6,4 5,1 5,8 6,7 28 15 50 27 W 1001,7 55 0 0,0
09.12.2018 23:00:00 6,6 3,0 5,8 5,3 5,8 6,6 18 10 46 25 W 1000,5 41 0 0,0

tt = temperature
td = dewpoint
tt 5cm = temperature 5cm
tt -5cm = temperature -5cm
tt -20cm = temperature -20cm
tt -100cm = temperature -100cm
ff = wind speed
fx = gusts
dd = wind direction
ppp = reduced air pressure
vv = visibility
sd = sunshine duration
rr = precipitation

Next stations